Location: Hurecourt
(47.9030°N, 6.0653°E)
Time: 08:52:42
(UTC+00:00)

Cosmos 2369 - Pass Details

Date: 14 July 2020
Orbit: 838 x 857 km, 71.0° (Epoch: 14 August)

Event Time Altitude Azimuth Distance (km) Brightness Sun altitude
Rises 01:38:50 0° 331° (NNW) 3,435 7.4 -15.7°
Reaches altitude 10° 01:41:17 10° 332° (NNW) 2,497 6.6 -15.5°
Maximum altitude 01:47:03 86° 245° (WSW) 865 3.7 -15.0°
Drops below altitude 10° 01:52:47 10° 156° (SSE) 2,485 5.8 -14.5°
Enters shadow 01:54:52 - 156° (SSE) 3,284 6.4 -14.3°
